Regional Weather Roundup
Issued by NWS

Home | Current Version | Previous Version | Text Only | Print | Product List | Glossary Off
Versions: 1 2 3 4 5 6 7 8 9 10 11 12 13 14 15 16 17 18 19 20 21 22 23 24 25 26 27 28 29 30 31 32 33 34 35 36 37 38 39 40 41 42 43 44 45 46 47 48 49 50

000
ASUS43 KFSD 250002
RWRSD

WEATHER ROUNDUP FOR SOUTH DAKOTA
NATIONAL WEATHER SERVICE SIOUX FALLS SD
600 PM CST FRI NOV 24 2017

NOTE: "FAIR" INDICATES FEW OR NO CLOUDS BELOW 12,000 FEET WITH NO
SIGNIFICANT WEATHER AND/OR OBSTRUCTIONS TO VISIBILITY.


SDZ001>005-009-010-012>017-250100-
NORTHWEST AND NORTH CENTRAL SOUTH DAKOTA

CITY           SKY/WX    TMP DP  RH WIND       PRES   REMARKS
BUFFALO          N/A     42  30  62 NW9       29.83R
FAITH            N/A     40  32  73 NW9       29.87R
MOBRIDGE       CLEAR     44  32  62 NW7       29.79R
$$

SDZ012>016-024>037-041>051-057-063-072>074-250100-
SOUTHWEST AND SOUTH CENTRAL SOUTH DAKOTA

CITY           SKY/WX    TMP DP  RH WIND       PRES   REMARKS
RAPID CTY ARPT CLEAR     40  25  55 N12       29.89S
PIERRE         CLEAR     44  35  70 NW9       29.84R
CUSTER         CLEAR     35  20  54 CALM      29.92R
ELLSWORTH AFB  CLEAR     46  28  48 N13       29.89R
PHILIP         CLEAR     45  33  63 W9        29.89R
PINE RIDGE     CLEAR     37  25  61 CALM      29.92R
SPEARFISH      FAIR      41  27  56 W5        29.92R
WINNER         FAIR      48  32  53 NW7       29.86R
$$

SDZ004>011-016>023-039-040-250100-
NORTHEAST SOUTH DAKOTA

CITY           SKY/WX    TMP DP  RH WIND       PRES   REMARKS
ABERDEEN       CLEAR     46  35  65 W15       29.77R
WATERTOWN      CLEAR     42  34  73 W9        29.73R
BROOKINGS      CLEAR     41  32  70 NW12      29.74R
SISSETON         N/A     45  36  70 W14       29.69R
$$

SDZ017-020-022-023-036>040-048>070-250100-
SOUTHEAST SOUTH DAKOTA

CITY           SKY/WX    TMP DP  RH WIND       PRES   REMARKS
SIOUX FALLS    PTCLDY    47  36  65 NW14      29.75R
HURON          CLEAR     39  31  72 W8        29.78R
CHAMBERLAIN    CLEAR     49  36  60 NW7       29.84R
MITCHELL       CLEAR     45  32  60 W9        29.81R
YANKTON        CLEAR     48  34  58 W12       29.81R
$$

ABBREVIATIONS USED IN REMARKS
   TC - TEMPERATURE IN CELSIUS
  WCI - WIND CHILL INDEX
   HX - HEAT INDEX
  VSB - VISIBILITY




USA.gov is the U.S. government's official web portal to all federal, state and local government web resources and services.